"read_dt","SO2 (ppb)","flags","PMT voltage (V)","lamp voltage (V)","lamp intensity (Hz)","internal temp (C)","react chamber temp (C)","sample flow (l/min)","pres (mmHg)","SO2 bkg (ppb)","SO2 coefficient"
2016-02-12 00:00:00,1640E-3,5C000400,-0724,0835,12266,026.2,045.4,0.259,766.7,01.15,0.508
2016-02-12 00:01:00,1716E-3,5C000400,-0724,0836,12153,026.1,045.4,0.259,766.7,01.15,0.508
2016-02-12 00:02:00,1689E-3,5C000400,-0724,0836,12044,026.1,045.4,0.259,766.7,01.15,0.508
2016-02-12 00:03:00,1845E-3,5C000400,-0724,0835,12124,026.2,045.4,0.259,766.7,01.15,0.508
2016-02-12 00:04:00,1770E-3,5C000400,-0724,0835,12109,026.2,045.3,0.259,766.7,01.15,0.508
2016-02-12 00:05:00,1681E-3,5C000400,-0724,0836,12098,026.1,045.3,0.259,766.7,01.15,0.508
2016-02-12 00:06:00,1708E-3,5C000400,-0724,0836,12023,026.1,045.4,0.259,766.7,01.15,0.508
2016-02-12 00:07:00,1865E-3,5C000400,-0724,0835,12218,026.1,045.4,0.259,766.7,01.15,0.508
2016-02-12 00:08:00,1794E-3,5C000400,-0724,0836,12210,026.1,045.4,0.259,766.7,01.15,0.508
2016-02-12 00:09:00,1729E-3,5C000400,-0724,0835,12108,026.2,045.4,0.259,766.7,01.15,0.508
2016-02-12 00:10:00,1681E-3,5C000400,-0724,0835,12035,026.1,045.3,0.259,766.7,01.15,0.508
2016-02-12 00:11:00,1798E-3,5C000400,-0724,0835,12061,026.1,045.4,0.259,766.7,01.15,0.508
2016-02-12 00:12:00,1841E-3,5C000400,-0724,0835,12032,026.1,045.4,0.259,766.7,01.15,0.508
2016-02-12 00:13:00,1718E-3,5C000400,-0724,0835,12155,026.1,045.4,0.259,766.6,01.15,0.508
2016-02-12 00:14:00,1698E-3,5C000400,-0724,0836,12192,026.1,045.4,0.259,766.6,01.15,0.508
2016-02-12 00:15:00,1835E-3,5C000400,-0724,0835,11995,026.1,045.4,0.259,766.7,01.15,0.508
2016-02-12 00:16:00,1728E-3,5C000400,-0724,0836,12162,026.1,045.4,0.259,766.7,01.15,0.508
2016-02-12 00:17:00,1808E-3,5C000400,-0724,0836,12228,026.1,045.4,0.259,766.7,01.15,0.508
2016-02-12 00:18:00,1698E-3,5C000400,-0724,0836,12111,026.1,045.4,0.259,766.6,01.15,0.508
2016-02-12 00:19:00,1805E-3,5C000400,-0724,0836,12196,026.1,045.4,0.259,766.6,01.15,0.508
2016-02-12 00:20:00,1755E-3,5C000400,-0724,0835,12140,026.1,045.4,0.259,766.6,01.15,0.508
2016-02-12 00:21:00,1718E-3,5C000400,-0724,0835,12042,026.1,045.4,0.259,766.6,01.15,0.508
2016-02-12 00:22:00,1785E-3,5C000400,-0724,0835,12029,026.1,045.4,0.259,766.6,01.15,0.508
2016-02-12 00:23:00,1800E-3,5C000400,-0724,0836,12250,026.1,045.4,0.259,766.6,01.15,0.508
2016-02-12 00:24:00,1641E-3,5C000400,-0724,0836,12068,026.1,045.4,0.259,766.6,01.15,0.508
2016-02-12 00:25:00,1728E-3,5C000400,-0724,0835,12149,026.1,045.4,0.259,766.6,01.15,0.508
2016-02-12 00:26:00,1768E-3,5C000400,-0724,0836,12225,026.2,045.4,0.259,766.6,01.15,0.508
2016-02-12 00:27:00,1792E-3,5C000400,-0724,0836,12137,026.1,045.3,0.259,766.6,01.15,0.508
2016-02-12 00:28:00,1625E-3,5C000400,-0724,0835,12109,026.1,045.4,0.259,766.6,01.15,0.508
2016-02-12 00:29:00,1735E-3,5C000400,-0724,0835,12118,026.1,045.4,0.259,766.5,01.15,0.508
2016-02-12 00:30:00,1881E-3,5C000400,-0724,0835,12151,026.1,045.4,0.259,766.6,01.15,0.508
2016-02-12 00:31:00,1756E-3,5C000400,-0724,0836,12099,026.1,045.4,0.259,766.6,01.15,0.508
2016-02-12 00:32:00,1857E-3,5C000400,-0724,0835,12199,026.1,045.4,0.259,766.6,01.15,0.508
2016-02-12 00:33:00,1855E-3,5C000400,-0724,0836,12234,026.1,045.4,0.259,766.6,01.15,0.508
2016-02-12 00:34:00,1721E-3,5C000400,-0724,0835,12099,026.1,045.4,0.259,766.5,01.15,0.508
2016-02-12 00:35:00,1822E-3,5C000400,-0724,0835,11966,026.1,045.4,0.259,766.5,01.15,0.508
2016-02-12 00:36:00,1749E-3,5C000400,-0724,0836,12194,026.1,045.3,0.259,766.5,01.15,0.508
2016-02-12 00:37:00,1746E-3,5C000400,-0724,0836,12205,026.1,045.4,0.259,766.5,01.15,0.508
2016-02-12 00:38:00,1715E-3,5C000400,-0724,0836,12110,026.1,045.4,0.259,766.5,01.15,0.508
2016-02-12 00:39:00,1723E-3,5C000400,-0724,0836,12095,026.1,045.4,0.260,766.5,01.15,0.508
2016-02-12 00:40:00,1723E-3,5C000400,-0724,0836,12214,026.1,045.4,0.259,766.5,01.15,0.508
2016-02-12 00:41:00,1764E-3,5C000400,-0724,0836,11958,026.1,045.4,0.259,766.6,01.15,0.508
2016-02-12 00:42:00,1816E-3,5C000400,-0724,0836,12145,026.1,045.4,0.260,766.5,01.15,0.508
2016-02-12 00:43:00,1794E-3,5C000400,-0724,0836,12081,026.1,045.4,0.259,766.5,01.15,0.508
2016-02-12 00:44:00,1802E-3,5C000400,-0724,0836,12091,026.1,045.4,0.260,766.5,01.15,0.508
2016-02-12 00:45:00,1894E-3,5C000400,-0724,0835,12170,026.1,045.4,0.259,766.6,01.15,0.508
2016-02-12 00:46:00,1777E-3,5C000400,-0724,0836,12146,026.1,045.4,0.259,766.5,01.15,0.508
2016-02-12 00:47:00,1626E-3,5C000400,-0724,0836,12139,026.1,045.4,0.259,766.5,01.15,0.508
2016-02-12 00:48:00,1826E-3,5C000400,-0724,0836,12206,026.1,045.4,0.259,766.5,01.15,0.508
2016-02-12 00:49:00,1829E-3,5C000400,-0724,0835,12158,026.1,045.4,0.259,766.5,01.15,0.508
2016-02-12 00:50:00,1835E-3,5C000400,-0724,0836,12164,026.1,045.3,0.259,766.5,01.15,0.508
2016-02-12 00:51:00,1776E-3,5C000400,-0724,0836,12166,026.1,045.4,0.259,766.5,01.15,0.508
2016-02-12 00:52:00,1645E-3,5C000400,-0724,0836,12200,026.1,045.4,0.259,766.5,01.15,0.508
2016-02-12 00:53:00,1818E-3,5C000400,-0724,0835,12154,026.1,045.4,0.259,766.5,01.15,0.508
2016-02-12 00:54:00,1688E-3,5C000400,-0724,0836,12127,026.1,045.4,0.259,766.5,01.15,0.508
2016-02-12 00:55:00,1738E-3,5C000400,-0724,0836,12249,026.1,045.3,0.260,766.5,01.15,0.508
2016-02-12 00:56:00,1744E-3,5C000400,-0724,0836,12071,026.1,045.4,0.259,766.5,01.15,0.508
2016-02-12 00:57:00,1688E-3,5C000400,-0724,0835,12015,026.1,045.4,0.259,766.5,01.15,0.508
2016-02-12 00:58:00,1734E-3,5C000400,-0724,0836,12210,026.1,045.4,0.259,766.5,01.15,0.508
2016-02-12 00:59:00,1739E-3,5C000400,-0724,0836,12219,026.1,045.3,0.259,766.5,01.15,0.508
2016-02-12 01:00:00,1860E-3,5C000400,-0724,0836,12004,026.1,045.4,0.259,766.5,01.15,0.508
2016-02-12 01:01:00,1727E-3,5C000400,-0724,0835,12256,026.1,045.4,0.259,766.5,01.15,0.508
2016-02-12 01:02:00,1722E-3,5C000400,-0724,0836,12096,026.1,045.4,0.259,766.5,01.15,0.508
2016-02-12 01:03:00,1664E-3,5C000400,-0724,0836,12151,026.1,045.4,0.259,766.5,01.15,0.508
2016-02-12 01:04:00,1759E-3,5C000400,-0724,0836,12199,026.1,045.4,0.259,766.5,01.15,0.508
2016-02-12 01:05:00,1749E-3,5C000400,-0724,0836,12199,026.1,045.4,0.260,766.5,01.15,0.508
2016-02-12 01:06:00,1843E-3,5C000400,-0724,0836,12143,026.1,045.4,0.259,766.5,01.15,0.508
2016-02-12 01:07:00,1868E-3,5C000400,-0724,0835,12081,026.1,045.4,0.259,766.5,01.15,0.508
2016-02-12 01:08:00,1774E-3,5C000400,-0724,0836,12031,026.1,045.3,0.259,766.5,01.15,0.508
2016-02-12 01:09:00,1817E-3,5C000400,-0724,0836,12153,026.1,045.4,0.259,766.5,01.15,0.508
2016-02-12 01:10:00,1742E-3,5C000400,-0724,0835,12131,026.1,045.4,0.259,766.5,01.15,0.508
2016-02-12 01:11:00,1747E-3,5C000400,-0724,0836,12052,026.1,045.4,0.259,766.5,01.15,0.508
2016-02-12 01:12:00,1708E-3,5C000400,-0724,0836,12097,026.1,045.3,0.259,766.5,01.15,0.508
2016-02-12 01:13:00,1780E-3,5C000400,-0724,0836,12140,026.1,045.3,0.259,766.5,01.15,0.508
2016-02-12 01:14:00,1669E-3,5C000400,-0724,0836,12087,026.1,045.4,0.259,766.5,01.15,0.508
2016-02-12 01:15:00,1862E-3,5C000400,-0724,0835,12100,026.1,045.4,0.259,766.5,01.15,0.508
2016-02-12 01:16:00,1926E-3,5C000400,-0724,0835,12166,026.1,045.4,0.259,766.5,01.15,0.508
2016-02-12 01:17:00,1748E-3,5C000400,-0724,0836,12134,026.1,045.4,0.259,766.5,01.15,0.508
2016-02-12 01:18:00,1723E-3,5C000400,-0724,0836,12129,026.1,045.4,0.259,766.5,01.15,0.508
2016-02-12 01:19:00,1926E-3,5C000400,-0724,0835,11966,026.1,045.4,0.259,766.5,01.15,0.508
2016-02-12 01:20:00,1852E-3,5C000400,-0724,0835,12142,026.1,045.4,0.259,766.5,01.15,0.508
2016-02-12 01:21:00,1789E-3,5C000400,-0724,0835,12296,026.1,045.3,0.259,766.5,01.15,0.508
2016-02-12 01:22:00,1742E-3,5C000400,-0724,0835,12207,026.1,045.4,0.259,766.5,01.15,0.508
2016-02-12 01:23:00,1772E-3,5C000400,-0724,0836,12063,026.0,045.3,0.259,766.5,01.15,0.508
2016-02-12 01:24:00,1716E-3,5C000400,-0724,0836,12136,026.1,045.4,0.259,766.5,01.15,0.508
2016-02-12 01:25:00,1796E-3,5C000400,-0724,0835,12134,026.1,045.4,0.259,766.5,01.15,0.508
2016-02-12 01:26:00,1676E-3,5C000400,-0724,0835,12157,026.1,045.4,0.260,766.5,01.15,0.508
2016-02-12 01:27:00,1733E-3,5C000400,-0724,0836,12196,026.0,045.4,0.259,766.5,01.15,0.508
2016-02-12 01:28:00,1694E-3,5C000400,-0724,0836,12248,026.1,045.4,0.259,766.5,01.15,0.508
2016-02-12 01:29:00,1816E-3,5C000400,-0724,0836,12102,026.1,045.4,0.260,766.5,01.15,0.508
2016-02-12 01:30:00,1812E-3,5C000400,-0724,0835,12117,026.1,045.4,0.259,766.5,01.15,0.508
2016-02-12 01:31:00,1745E-3,5C000400,-0724,0836,12292,026.1,045.4,0.259,766.4,01.15,0.508
2016-02-12 01:32:00,1680E-3,5C000400,-0724,0836,12255,026.1,045.4,0.260,766.4,01.15,0.508
2016-02-12 01:33:00,1732E-3,5C000400,-0724,0836,12123,026.0,045.4,0.259,766.4,01.15,0.508
2016-02-12 01:34:00,1667E-3,5C000400,-0724,0836,12137,026.1,045.4,0.259,766.4,01.15,0.508
2016-02-12 01:35:00,1709E-3,5C000400,-0724,0836,12173,026.1,045.4,0.260,766.4,01.15,0.508
2016-02-12 01:36:00,1719E-3,5C000400,-0724,0837,12135,026.1,045.4,0.259,766.4,01.15,0.508
2016-02-12 01:37:00,1839E-3,5C000400,-0724,0835,12157,026.0,045.4,0.259,766.4,01.15,0.508
2016-02-12 01:38:00,1580E-3,5C000400,-0724,0836,12244,026.1,045.4,0.260,766.4,01.15,0.508
2016-02-12 01:39:00,1842E-3,5C000400,-0724,0836,12174,026.1,045.4,0.259,766.4,01.15,0.508
2016-02-12 01:40:00,1784E-3,5C000400,-0724,0836,12218,026.1,045.4,0.259,766.4,01.15,0.508
2016-02-12 01:41:00,1663E-3,5C000400,-0724,0835,12167,026.1,045.4,0.260,766.4,01.15,0.508
2016-02-12 01:42:00,1792E-3,5C000400,-0724,0836,12041,026.0,045.4,0.260,766.4,01.15,0.508
2016-02-12 01:43:00,1873E-3,5C000400,-0724,0836,12124,026.1,045.4,0.260,766.4,01.15,0.508
2016-02-12 01:44:00,1664E-3,5C000400,-0724,0835,11985,026.1,045.4,0.260,766.4,01.15,0.508
2016-02-12 01:45:00,1877E-3,5C000400,-0724,0836,12108,026.1,045.4,0.259,766.4,01.15,0.508
2016-02-12 01:46:00,1793E-3,5C000400,-0724,0835,12069,026.0,045.4,0.259,766.4,01.15,0.508
2016-02-12 01:47:00,1838E-3,5C000400,-0724,0836,12189,026.0,045.4,0.260,766.4,01.15,0.508
2016-02-12 01:48:00,1746E-3,5C000400,-0724,0836,12187,026.0,045.4,0.259,766.4,01.15,0.508
2016-02-12 01:49:00,1822E-3,5C000400,-0724,0835,12122,026.1,045.3,0.259,766.4,01.15,0.508
2016-02-12 01:50:00,1683E-3,5C000400,-0724,0835,12161,026.0,045.4,0.259,766.4,01.15,0.508
2016-02-12 01:51:00,1553E-3,5C000400,-0724,0835,12037,026.0,045.4,0.260,766.4,01.15,0.508
2016-02-12 01:52:00,1634E-3,5C000400,-0724,0836,12275,026.1,045.4,0.259,766.4,01.15,0.508
2016-02-12 01:53:00,1816E-3,5C000400,-0724,0836,12220,026.0,045.4,0.259,766.4,01.15,0.508
2016-02-12 01:54:00,1738E-3,5C000400,-0724,0836,12260,026.0,045.3,0.260,766.4,01.15,0.508
2016-02-12 01:55:00,1736E-3,5C000400,-0724,0835,12198,026.0,045.4,0.260,766.4,01.15,0.508
2016-02-12 01:56:00,1768E-3,5C000400,-0724,0836,12151,026.0,045.4,0.259,766.4,01.15,0.508
2016-02-12 01:57:00,1804E-3,5C000400,-0724,0836,12074,026.0,045.3,0.259,766.4,01.15,0.508
2016-02-12 01:58:00,1651E-3,5C000400,-0724,0836,12292,026.0,045.4,0.260,766.4,01.15,0.508
2016-02-12 01:59:00,1641E-3,5C000400,-0724,0836,12300,026.0,045.4,0.259,766.4,01.15,0.508
2016-02-12 02:00:00,1691E-3,5C000400,-0724,0835,12072,026.0,045.4,0.259,766.4,01.15,0.508
2016-02-12 02:01:00,1847E-3,5C000400,-0724,0836,12064,026.0,045.4,0.259,766.3,01.15,0.508
2016-02-12 02:02:00,1881E-3,5C000400,-0724,0835,12155,026.0,045.3,0.260,766.3,01.15,0.508
2016-02-12 02:03:00,1612E-3,5C000400,-0724,0836,12147,026.0,045.4,0.259,766.3,01.15,0.508
2016-02-12 02:04:00,1727E-3,5C000400,-0724,0835,12148,026.0,045.3,0.259,766.3,01.15,0.508
2016-02-12 02:05:00,1792E-3,5C000400,-0724,0836,12328,026.0,045.3,0.260,766.3,01.15,0.508
2016-02-12 02:06:00,1758E-3,5C000400,-0724,0835,12175,026.0,045.4,0.259,766.3,01.15,0.508
2016-02-12 02:07:00,1693E-3,5C000400,-0724,0836,12153,026.0,045.4,0.259,766.3,01.15,0.508
2016-02-12 02:08:00,1851E-3,5C000400,-0724,0836,12122,026.0,045.4,0.260,766.3,01.15,0.508
2016-02-12 02:09:00,1803E-3,5C000400,-0724,0835,12149,026.0,045.3,0.259,766.3,01.15,0.508
2016-02-12 02:10:00,1734E-3,5C000400,-0724,0836,12119,026.0,045.4,0.260,766.3,01.15,0.508
2016-02-12 02:11:00,1864E-3,5C000400,-0724,0836,12134,026.0,045.3,0.259,766.3,01.15,0.508
2016-02-12 02:12:00,1776E-3,5C000400,-0724,0835,12243,026.0,045.4,0.259,766.2,01.15,0.508
2016-02-12 02:13:00,1791E-3,5C000400,-0724,0835,12155,026.0,045.3,0.260,766.2,01.15,0.508
2016-02-12 02:14:00,1757E-3,5C000400,-0724,0836,12047,026.0,045.4,0.259,766.3,01.15,0.508
2016-02-12 02:15:00,1753E-3,5C000400,-0724,0836,12101,026.0,045.4,0.259,766.3,01.15,0.508
2016-02-12 02:16:00,1698E-3,5C000400,-0724,0835,12117,026.0,045.4,0.260,766.3,01.15,0.508
2016-02-12 02:17:00,1707E-3,5C000400,-0724,0835,11932,026.0,045.4,0.259,766.3,01.15,0.508
2016-02-12 02:18:00,1665E-3,5C000400,-0724,0835,12249,026.0,045.4,0.259,766.3,01.15,0.508
2016-02-12 02:19:00,1709E-3,5C000400,-0724,0835,12222,026.0,045.4,0.260,766.3,01.15,0.508
2016-02-12 02:20:00,1722E-3,5C000400,-0724,0836,12181,026.0,045.4,0.259,766.3,01.15,0.508
2016-02-12 02:21:00,1767E-3,5C000400,-0724,0835,12101,026.0,045.3,0.259,766.2,01.15,0.508
2016-02-12 02:22:00,1781E-3,5C000400,-0724,0836,12133,026.0,045.3,0.260,766.3,01.15,0.508
2016-02-12 02:23:00,1776E-3,5C000400,-0724,0836,12117,026.0,045.4,0.259,766.3,01.15,0.508
2016-02-12 02:24:00,1850E-3,5C000400,-0724,0835,12162,026.0,045.3,0.259,766.3,01.15,0.508
2016-02-12 02:25:00,1639E-3,5C000400,-0724,0835,12064,026.0,045.3,0.260,766.3,01.15,0.508
2016-02-12 02:26:00,1798E-3,5C000400,-0724,0835,12159,026.0,045.4,0.260,766.3,01.15,0.508
2016-02-12 02:27:00,1806E-3,5C000400,-0724,0835,12097,026.0,045.4,0.259,766.3,01.15,0.508
2016-02-12 02:28:00,1713E-3,5C000400,-0724,0835,12211,026.0,045.4,0.260,766.3,01.15,0.508
2016-02-12 02:29:00,1736E-3,5C000400,-0724,0835,12101,026.0,045.4,0.260,766.2,01.15,0.508
2016-02-12 02:30:00,1789E-3,5C000400,-0724,0835,12062,026.0,045.4,0.259,766.2,01.15,0.508
2016-02-12 02:31:00,1627E-3,5C000400,-0724,0836,12223,026.0,045.4,0.259,766.3,01.15,0.508
2016-02-12 02:32:00,1678E-3,5C000400,-0724,0835,12136,026.0,045.3,0.260,766.3,01.15,0.508
2016-02-12 02:33:00,1724E-3,5C000400,-0724,0835,12299,026.0,045.3,0.260,766.3,01.15,0.508
2016-02-12 02:34:00,1712E-3,5C000400,-0724,0836,12118,026.0,045.4,0.259,766.2,01.15,0.508
2016-02-12 02:35:00,1841E-3,5C000400,-0724,0835,12215,026.0,045.4,0.259,766.2,01.15,0.508
2016-02-12 02:36:00,1738E-3,5C000400,-0724,0836,12028,026.0,045.4,0.260,766.2,01.15,0.508
2016-02-12 02:37:00,1776E-3,5C000400,-0724,0836,12131,026.0,045.4,0.260,766.2,01.15,0.508
2016-02-12 02:38:00,1757E-3,5C000400,-0724,0835,12217,026.0,045.4,0.259,766.2,01.15,0.508
2016-02-12 02:39:00,1720E-3,5C000400,-0724,0835,12153,026.0,045.4,0.260,766.2,01.15,0.508
2016-02-12 02:40:00,1693E-3,5C000400,-0724,0836,12100,026.0,045.3,0.260,766.2,01.15,0.508
2016-02-12 02:41:00,1699E-3,5C000400,-0724,0835,12179,026.0,045.4,0.259,766.2,01.15,0.508
2016-02-12 02:42:00,1840E-3,5C000400,-0724,0836,12231,026.0,045.3,0.260,766.1,01.15,0.508
2016-02-12 02:43:00,1864E-3,5C000400,-0724,0835,12131,026.0,045.4,0.260,766.1,01.15,0.508
2016-02-12 02:44:00,1670E-3,5C000400,-0724,0836,12176,026.0,045.4,0.259,766.1,01.15,0.508
2016-02-12 02:45:00,1803E-3,5C000400,-0724,0836,12024,026.0,045.4,0.260,766.2,01.15,0.508
2016-02-12 02:46:00,1762E-3,5C000400,-0724,0835,12173,026.0,045.4,0.260,766.2,01.15,0.508
2016-02-12 02:47:00,1771E-3,5C000400,-0724,0835,12247,026.0,045.4,0.259,766.2,01.15,0.508
2016-02-12 02:48:00,1822E-3,5C000400,-0724,0835,11908,026.0,045.4,0.260,766.2,01.15,0.508
2016-02-12 02:49:00,1810E-3,5C000400,-0724,0835,12246,026.0,045.4,0.260,766.2,01.15,0.508
2016-02-12 02:50:00,1741E-3,5C000400,-0724,0837,12076,026.0,045.4,0.259,766.2,01.15,0.508
2016-02-12 02:51:00,1848E-3,5C000400,-0724,0836,12161,026.0,045.4,0.260,766.2,01.15,0.508
2016-02-12 02:52:00,1863E-3,5C000400,-0724,0836,12261,026.0,045.4,0.260,766.2,01.15,0.508
2016-02-12 02:53:00,1671E-3,5C000400,-0724,0836,12180,026.0,045.4,0.259,766.2,01.15,0.508
2016-02-12 02:54:00,1761E-3,5C000400,-0724,0836,12183,026.0,045.4,0.260,766.2,01.15,0.508
2016-02-12 02:55:00,1766E-3,5C000400,-0724,0835,12060,026.0,045.4,0.260,766.2,01.15,0.508
2016-02-12 02:56:00,1712E-3,5C000400,-0724,0835,12092,026.0,045.4,0.259,766.2,01.15,0.508
2016-02-12 02:57:00,1721E-3,5C000400,-0724,0835,12105,026.0,045.4,0.260,766.2,01.15,0.508
2016-02-12 02:58:00,1737E-3,5C000400,-0724,0835,12199,026.0,045.4,0.260,766.2,01.15,0.508
2016-02-12 02:59:00,1754E-3,5C000400,-0724,0835,12113,026.0,045.4,0.259,766.2,01.15,0.508
2016-02-12 03:00:00,1676E-3,5C000400,-0724,0835,12169,026.0,045.4,0.260,766.2,01.15,0.508
2016-02-12 03:01:00,1848E-3,5C000400,-0724,0836,12246,026.0,045.4,0.260,766.2,01.15,0.508
2016-02-12 03:02:00,1716E-3,5C000400,-0724,0835,12153,026.0,045.4,0.259,766.1,01.15,0.508
2016-02-12 03:03:00,1741E-3,5C000400,-0724,0835,12069,026.0,045.3,0.259,766.1,01.15,0.508
2016-02-12 03:04:00,1696E-3,5C000400,-0724,0835,12194,026.0,045.3,0.260,766.1,01.15,0.508
2016-02-12 03:05:00,1723E-3,5C000400,-0724,0835,11998,026.0,045.4,0.259,766.1,01.15,0.508
2016-02-12 03:06:00,1759E-3,5C000400,-0724,0835,12078,026.0,045.4,0.259,766.1,01.15,0.508
2016-02-12 03:07:00,1744E-3,5C000400,-0724,0835,12091,026.0,045.3,0.260,766.1,01.15,0.508
2016-02-12 03:08:00,1884E-3,5C000400,-0724,0835,12310,026.0,045.3,0.260,766.1,01.15,0.508
2016-02-12 03:09:00,1681E-3,5C000400,-0724,0835,12257,026.0,045.3,0.259,766.1,01.15,0.508
2016-02-12 03:10:00,1666E-3,5C000400,-0724,0835,12062,026.0,045.4,0.259,766.1,01.15,0.508
2016-02-12 03:11:00,1820E-3,5C000400,-0724,0835,12231,026.0,045.4,0.260,766.1,01.15,0.508
2016-02-12 03:12:00,1715E-3,5C000400,-0724,0836,12066,026.0,045.4,0.260,766.1,01.15,0.508
2016-02-12 03:13:00,1678E-3,5C000400,-0724,0835,12091,026.0,045.3,0.259,766.1,01.15,0.508
2016-02-12 03:14:00,1722E-3,5C000400,-0724,0835,12309,026.0,045.3,0.259,766.1,01.15,0.508
2016-02-12 03:15:00,1737E-3,5C000400,-0724,0836,12068,026.0,045.4,0.260,766.1,01.15,0.508
2016-02-12 03:16:00,1772E-3,5C000400,-0724,0835,12037,026.0,045.4,0.259,766.1,01.15,0.508
2016-02-12 03:17:00,1782E-3,5C000400,-0724,0835,12153,026.0,045.3,0.259,766.1,01.15,0.508
2016-02-12 03:18:00,1637E-3,5C000400,-0724,0835,12011,026.0,045.3,0.259,766.1,01.15,0.508
2016-02-12 03:19:00,1909E-3,5C000400,-0724,0835,12140,026.0,045.3,0.260,766.0,01.15,0.508
2016-02-12 03:20:00,1789E-3,5C000400,-0724,0835,12192,026.0,045.3,0.259,766.0,01.15,0.508
2016-02-12 03:21:00,1733E-3,5C000400,-0724,0836,12198,026.0,045.4,0.259,766.0,01.15,0.508
2016-02-12 03:22:00,1585E-3,5C000400,-0724,0835,12090,026.0,045.4,0.260,766.0,01.15,0.508
2016-02-12 03:23:00,1924E-3,5C000400,-0724,0835,12128,026.0,045.4,0.260,766.0,01.15,0.508
2016-02-12 03:24:00,1854E-3,5C000400,-0724,0837,12180,026.0,045.4,0.259,766.0,01.15,0.508
2016-02-12 03:25:00,1748E-3,5C000400,-0724,0836,12111,026.0,045.3,0.259,766.0,01.15,0.508
2016-02-12 03:26:00,1794E-3,5C000400,-0724,0835,12203,026.0,045.4,0.260,766.0,01.15,0.508
2016-02-12 03:27:00,1715E-3,5C000400,-0724,0836,12152,026.0,045.4,0.259,766.0,01.15,0.508
2016-02-12 03:28:00,1853E-3,5C000400,-0724,0836,12031,026.0,045.3,0.259,766.0,01.15,0.508
2016-02-12 03:29:00,1742E-3,5C000400,-0724,0836,12116,026.0,045.4,0.259,766.0,01.15,0.508
2016-02-12 03:30:00,1629E-3,5C000400,-0724,0836,12233,026.0,045.4,0.260,766.0,01.15,0.508
2016-02-12 03:31:00,1747E-3,5C000400,-0724,0836,12079,026.0,045.4,0.259,766.0,01.15,0.508
2016-02-12 03:32:00,1838E-3,5C000400,-0724,0835,12085,026.0,045.4,0.259,766.0,01.15,0.508
2016-02-12 03:33:00,1772E-3,5C000400,-0724,0835,12167,026.0,045.4,0.260,766.0,01.15,0.508
2016-02-12 03:34:00,1693E-3,5C000400,-0724,0835,12073,026.1,045.4,0.259,766.0,01.15,0.508
2016-02-12 03:35:00,1576E-3,5C000400,-0724,0836,12002,026.0,045.4,0.259,766.0,01.15,0.508
2016-02-12 03:36:00,1725E-3,5C000400,-0724,0835,12174,026.0,045.4,0.260,766.0,01.15,0.508
2016-02-12 03:37:00,1775E-3,5C000400,-0724,0836,12123,026.0,045.4,0.259,766.0,01.15,0.508
2016-02-12 03:38:00,1710E-3,5C000400,-0724,0836,12191,026.1,045.3,0.259,766.0,01.15,0.508
2016-02-12 03:39:00,1725E-3,5C000400,-0724,0835,12145,026.1,045.3,0.260,766.0,01.15,0.508
2016-02-12 03:40:00,1779E-3,5C000400,-0724,0836,12190,026.0,045.3,0.259,766.0,01.15,0.508
2016-02-12 03:41:00,1745E-3,5C000400,-0724,0835,12051,026.0,045.4,0.259,766.0,01.15,0.508
2016-02-12 03:42:00,1667E-3,5C000400,-0724,0836,12234,026.1,045.4,0.260,765.9,01.15,0.508
2016-02-12 03:43:00,1696E-3,5C000400,-0724,0837,12042,026.0,045.4,0.259,765.9,01.15,0.508
2016-02-12 03:44:00,1683E-3,5C000400,-0724,0836,12128,026.0,045.4,0.260,765.9,01.15,0.508
2016-02-12 03:45:00,1905E-3,5C000400,-0724,0836,12213,026.0,045.3,0.260,766.0,01.15,0.508
2016-02-12 03:46:00,1801E-3,5C000400,-0724,0836,12119,026.0,045.4,0.259,766.0,01.15,0.508
2016-02-12 03:47:00,1784E-3,5C000400,-0724,0836,12206,026.0,045.4,0.259,766.0,01.15,0.508
2016-02-12 03:48:00,1689E-3,5C000400,-0724,0835,12096,026.0,045.4,0.260,766.0,01.15,0.508
2016-02-12 03:49:00,1782E-3,5C000400,-0724,0837,12014,026.0,045.4,0.259,766.0,01.15,0.508
2016-02-12 03:50:00,1867E-3,5C000400,-0724,0835,11970,026.1,045.4,0.259,766.0,01.15,0.508
2016-02-12 03:51:00,1883E-3,5C000400,-0724,0835,12115,026.1,045.4,0.259,766.0,01.15,0.508
2016-02-12 03:52:00,1698E-3,5C000400,-0724,0835,12112,026.1,045.4,0.259,766.0,01.15,0.508
2016-02-12 03:53:00,1825E-3,5C000400,-0724,0836,12142,026.1,045.4,0.259,766.1,01.15,0.508
2016-02-12 03:54:00,1723E-3,5C000400,-0724,0836,12152,026.1,045.4,0.259,766.0,01.15,0.508
2016-02-12 03:55:00,1663E-3,5C000400,-0724,0835,12139,026.1,045.3,0.260,766.0,01.15,0.508
2016-02-12 03:56:00,1847E-3,5C000400,-0724,0835,12212,026.1,045.4,0.259,766.0,01.15,0.508
2016-02-12 03:57:00,1628E-3,5C000400,-0724,0835,12045,026.1,045.4,0.259,766.0,01.15,0.508
2016-02-12 03:58:00,1704E-3,5C000400,-0724,0836,11950,026.1,045.4,0.259,766.0,01.15,0.508
2016-02-12 03:59:00,1778E-3,5C000400,-0724,0835,12026,026.0,045.3,0.260,766.1,01.15,0.508
2016-02-12 04:00:00,1709E-3,5C000400,-0724,0836,12232,026.1,045.4,0.259,766.0,01.15,0.508
2016-02-12 04:01:00,1710E-3,5C000400,-0724,0836,12132,026.1,045.4,0.259,766.1,01.15,0.508
2016-02-12 04:02:00,1668E-3,5C000400,-0724,0835,12205,026.1,045.4,0.259,766.1,01.15,0.508
2016-02-12 04:03:00,1723E-3,5C000400,-0724,0835,12113,026.1,045.4,0.260,766.1,01.15,0.508
2016-02-12 04:04:00,1803E-3,5C000400,-0724,0835,12046,026.1,045.4,0.259,766.1,01.15,0.508
2016-02-12 04:05:00,1676E-3,5C000400,-0724,0836,12080,026.1,045.4,0.259,766.1,01.15,0.508
2016-02-12 04:06:00,1934E-3,5C000400,-0724,0835,12137,026.1,045.4,0.259,766.1,01.15,0.508
2016-02-12 04:07:00,1599E-3,5C000400,-0724,0835,12064,026.1,045.4,0.260,766.1,01.15,0.508
2016-02-12 04:08:00,1925E-3,5C000400,-0724,0835,12017,026.1,045.4,0.259,766.1,01.15,0.508
2016-02-12 04:09:00,1815E-3,5C000400,-0724,0835,11953,026.1,045.4,0.259,766.1,01.15,0.508
2016-02-12 04:10:00,1771E-3,5C000400,-0724,0835,12041,026.1,045.4,0.259,766.1,01.15,0.508
2016-02-12 04:11:00,1709E-3,5C000400,-0724,0835,12108,026.1,045.4,0.259,766.1,01.15,0.508
2016-02-12 04:12:00,1879E-3,5C000400,-0724,0835,12204,026.1,045.4,0.259,766.1,01.15,0.508
2016-02-12 04:13:00,1787E-3,5C000400,-0724,0835,12251,026.1,045.4,0.259,766.0,01.15,0.508
2016-02-12 04:14:00,1574E-3,5C000400,-0724,0835,12058,026.1,045.4,0.260,766.1,01.15,0.508
2016-02-12 04:15:00,1596E-3,5C000400,-0724,0835,12114,026.1,045.4,0.259,766.0,01.15,0.508
2016-02-12 04:16:00,1760E-3,5C000400,-0724,0835,12079,026.1,045.4,0.259,766.0,01.15,0.508
2016-02-12 04:17:00,1796E-3,5C000400,-0724,0836,12114,026.1,045.4,0.259,766.0,01.15,0.508
2016-02-12 04:18:00,1614E-3,5C000400,-0724,0835,12254,026.1,045.4,0.259,766.0,01.15,0.508
2016-02-12 04:19:00,1679E-3,5C000400,-0724,0835,12284,026.1,045.4,0.259,766.0,01.15,0.508
2016-02-12 04:20:00,1726E-3,5C000400,-0724,0836,12232,026.2,045.3,0.260,766.0,01.15,0.508